Pittsfield, MA

6:19 AM EDT on May 28, 2018 (GMT -0400)
Pittsfield Municipal

Weather History for KPSF - April, 2014

Change the Weather History Date:

Tuesday, April 15, 2014

  Actual Average Record
Temperature  
Mean Temperature 43 °F 44 °F  
Max Temperature 61 °F 54 °F 80 °F (1938)
Min Temperature 25 °F 34 °F 18 °F (1943)
Degree Days  
Heating Degree Days 22 21  
Month to date heating degree days 300 360  
Since 1 July heating degree days 7083 6767  
Cooling Degree Days 0 0  
Month to date cooling degree days 1 0  
Year to date cooling degree days 1 0  
Moisture  
Dew Point 45 °F    
Average Humidity 83    
Maximum Humidity 93    
Minimum Humidity 72    
Precipitation  
Precipitation 1.20 in 0.12 in 1.20 in (2014)
Month to date precipitation 1.73 2.29  
Year to date precipitation 11.24 11.26  
Sea Level Pressure  
Sea Level Pressure 29.65 in    
Wind  
Wind Speed 15 mph (SW)    
Max Wind Speed 28 mph    
Max Gust Speed 38 mph    
Visibility 4 miles    
Events Fog , Rain , Snow    
T = Trace of Precipitation, MM = Missing Value Source: NWS Daily Summary

Daily Weather History Graph

Daily Weather History Graph

Search for Another Location

Airport or City:

Astronomy

Apr. 15, 2014 Rise Set
Actual Time 6:12 AM EDT 7:34 PM EDT
Civil Twilight 5:42 AM EDT 8:04 PM EDT
Nautical Twilight 5:07 AM EDT 8:39 PM EDT
Astronomical Twilight 4:30 AM EDT 9:16 PM EDT
Moon 8:13 PM EDT (4/15) 6:18 AM EDT (4/15)
Length of Visible Light 14h 21m
Length of Day
13h 22m
Full, 100% of the Moon is Illuminated
Apr 15
Full
Apr 22
Last Quarter
Apr 29
New
May 6
First Quarter
May 14
Full

Hourly Weather History & Observations

Time (EDT) Temp. Windchill Dew Point Humidity Pressure Visibility Wind Dir Wind Speed Gust Speed Precip Events Conditions
12:54 AM 60.1 °F - 52.0 °F 75% 29.75 in 10.0 mi South 16.1 mph 24.2 mph N/A   Clear
1:54 AM 60.1 °F - 52.0 °F 75% 29.74 in 10.0 mi South 18.4 mph 25.3 mph N/A   Clear
2:54 AM 60.1 °F - 53.1 °F 78% 29.70 in 10.0 mi South 15.0 mph 24.2 mph N/A   Mostly Cloudy
3:54 AM 60.1 °F - 53.1 °F 78% 29.70 in 10.0 mi South 20.7 mph 26.5 mph N/A   Partly Cloudy
4:54 AM 60.1 °F - 54.0 °F 80% 29.69 in 10.0 mi South 15.0 mph 23.0 mph N/A   Scattered Clouds
5:54 AM 60.1 °F - 54.0 °F 80% 29.68 in 10.0 mi South 12.7 mph 19.6 mph N/A   Mostly Cloudy
6:54 AM 60.1 °F - 55.0 °F 83% 29.65 in 10.0 mi South 11.5 mph 18.4 mph 0.00 in Rain Light Rain
7:15 AM 59.0 °F - 55.0 °F 87% 29.70 in 5.0 mi Variable 5.8 mph 18.4 mph 0.01 in Rain Light Rain
7:23 AM 59.0 °F - 55.0 °F 87% 29.71 in 1.8 mi Variable 3.5 mph - 0.02 in Rain Light Rain
7:49 AM 57.2 °F - 55.4 °F 94% 29.69 in 3.0 mi SSE 8.1 mph - 0.05 in   Overcast
7:54 AM 57.9 °F - 55.9 °F 93% 29.64 in 7.0 mi SE 8.1 mph - 0.05 in   Overcast
8:26 AM 59.0 °F - 55.9 °F 90% 29.69 in 7.0 mi South 8.1 mph - N/A   Overcast
8:54 AM 57.9 °F - 55.9 °F 93% 29.62 in 4.0 mi SSE 9.2 mph 18.4 mph 0.00 in   Overcast
9:30 AM 59.0 °F - 57.0 °F 93% 29.66 in 1.8 mi SE 6.9 mph - 0.00 in Rain Light Rain
9:51 AM 59.0 °F - 57.2 °F 94% 29.65 in 2.5 mi South 5.8 mph - 0.01 in   Overcast
9:54 AM 59.0 °F - 57.0 °F 93% 29.60 in 2.5 mi South 8.1 mph - 0.01 in   Overcast
10:01 AM 60.1 °F - 57.0 °F 90% 29.64 in 4.0 mi Variable 4.6 mph - N/A   Overcast
10:54 AM 60.1 °F - 57.0 °F 90% 29.55 in 1.5 mi South 9.2 mph - 0.02 in Rain Light Rain
11:00 AM 60.1 °F - 57.0 °F 90% 29.60 in 2.5 mi South 12.7 mph 21.9 mph 0.00 in Rain Light Rain
11:07 AM 60.1 °F - 57.0 °F 90% 29.59 in 7.0 mi South 10.4 mph 20.7 mph 0.00 in   Overcast
11:54 AM 61.0 °F - 55.9 °F 83% 29.52 in 3.0 mi SSW 17.3 mph 31.1 mph 0.00 in Rain Light Rain
12:20 PM 60.1 °F - 57.0 °F 90% 29.56 in 2.5 mi South 12.7 mph 29.9 mph 0.01 in Rain Light Rain
12:29 PM 60.1 °F - 57.0 °F 90% 29.55 in 4.0 mi South 19.6 mph 35.7 mph 0.03 in Rain Light Rain
12:54 PM 60.1 °F - 57.0 °F 90% 29.49 in 2.0 mi South 15.0 mph 29.9 mph 0.11 in Rain Rain
1:11 PM 61.0 °F - 57.0 °F 87% 29.54 in 3.0 mi South 18.4 mph 31.1 mph 0.04 in Rain Rain
1:54 PM 61.0 °F - 57.9 °F 90% 29.47 in 5.0 mi South 20.7 mph 27.6 mph 0.13 in Rain Light Rain
2:21 PM 61.0 °F - 57.9 °F 90% 29.51 in 2.5 mi South 15.0 mph 25.3 mph 0.06 in Rain Light Rain
2:34 PM 60.1 °F - 57.9 °F 93% 29.51 in 1.5 mi SW 16.1 mph 27.6 mph 0.14 in Rain Rain
2:49 PM 60.8 °F - 57.2 °F 88% 29.51 in 2.0 mi South 11.5 mph 20.7 mph 0.19 in Rain Light Rain
2:54 PM 61.0 °F - 57.9 °F 90% 29.46 in 3.0 mi South 12.7 mph 19.6 mph 0.20 in Rain Rain
3:12 PM 60.1 °F - 57.0 °F 90% 29.50 in 2.0 mi South 12.7 mph 24.2 mph 0.03 in Rain Light Rain
3:30 PM 60.1 °F - 57.0 °F 90% 29.49 in 1.8 mi South 17.3 mph 29.9 mph 0.10 in Rain Rain
3:36 PM 59.0 °F - 55.9 °F 90% 29.50 in 2.0 mi West 19.6 mph 25.3 mph 0.13 in Rain Rain
3:40 PM 53.1 °F - 48.9 °F 86% 29.51 in 1.8 mi WNW 11.5 mph 25.3 mph 0.15 in Rain Heavy Rain
3:45 PM 48.9 °F - 46.0 °F 90% 29.53 in 0.8 mi WNW 18.4 mph 25.3 mph 0.21 in Rain Heavy Rain
3:54 PM 45.0 °F 37.9 °F 42.1 °F 90% 29.51 in 1.0 mi West 16.1 mph 25.3 mph 0.27 in Rain Rain
4:09 PM 43.0 °F 34.5 °F 39.9 °F 89% 29.56 in 3.0 mi WSW 19.6 mph 26.5 mph 0.03 in Rain Light Rain
4:24 PM 42.1 °F 35.2 °F 39.0 °F 89% 29.58 in 3.0 mi West 12.7 mph 19.6 mph 0.05 in Rain Light Rain
4:38 PM 39.9 °F 33.9 °F 37.9 °F 93% 29.60 in 2.5 mi WSW 9.2 mph 19.6 mph 0.07 in Rain Light Rain
4:54 PM 39.9 °F 35.8 °F 37.0 °F 89% 29.59 in 2.5 mi Variable 5.8 mph 21.9 mph 0.11 in Rain Rain
5:06 PM 39.0 °F 31.4 °F 36.0 °F 89% 29.62 in 2.5 mi West 12.7 mph 19.6 mph 0.02 in Rain Rain
5:47 PM 37.0 °F 28.5 °F 34.0 °F 89% 29.65 in 3.0 mi West 13.8 mph 26.5 mph 0.14 in Rain Rain
5:54 PM 37.0 °F 31.0 °F 34.0 °F 89% 29.64 in 3.0 mi West 8.1 mph - 0.15 in Rain Light Rain
6:54 PM 35.1 °F 23.3 °F 30.9 °F 85% 29.67 in 10.0 mi WNW 23.0 mph 34.5 mph 0.04 in   Overcast
7:35 PM 33.1 °F 22.2 °F 30.0 °F 89% 29.73 in 2.0 mi WNW 17.3 mph 31.1 mph 0.01 in Rain Light Rain
7:43 PM 32.0 °F 19.2 °F 30.0 °F 92% 29.72 in 1.5 mi WNW 23.0 mph 34.5 mph 0.02 in Snow Light Snow
7:48 PM 32.0 °F 19.2 °F 28.4 °F 87% 29.73 in 2.0 mi WNW 23.0 mph 36.8 mph 0.02 in Snow Light Snow
7:51 PM 32.0 °F 20.5 °F 28.4 °F 87% 29.72 in 3.0 mi WNW 18.4 mph 36.8 mph 0.02 in Snow Light Snow
7:54 PM 32.0 °F 20.5 °F 28.0 °F 85% 29.70 in 5.0 mi NW 18.4 mph 33.4 mph 0.02 in   Overcast
8:25 PM 32.0 °F 21.2 °F 28.9 °F 88% 29.75 in 1.8 mi WNW 16.1 mph 27.6 mph 0.00 in Snow Light Snow
8:37 PM 30.9 °F 20.7 °F 28.0 °F 89% 29.77 in 2.5 mi WNW 13.8 mph 26.5 mph 0.00 in Snow Light Snow
8:51 PM 30.2 °F 21.3 °F 28.4 °F 93% 29.78 in 1.5 mi West 10.4 mph 33.4 mph 0.01 in Snow Light Snow
8:54 PM 30.0 °F 18.3 °F 28.0 °F 92% 29.78 in 1.2 mi West 17.3 mph 33.4 mph 0.01 in Snow Light Snow
9:42 PM 28.9 °F 17.7 °F 26.1 °F 89% 29.81 in 0.8 mi West 15.0 mph 21.9 mph 0.02 in Snow Light Snow
9:54 PM 28.9 °F 16.1 °F 25.0 °F 85% 29.81 in 0.8 mi WNW 19.6 mph 29.9 mph 0.03 in Snow Light Snow
10:47 PM 28.0 °F 16.5 °F 25.0 °F 88% 29.84 in 0.5 mi WNW 15.0 mph 26.5 mph 0.01 in Fog , Snow Snow
10:54 PM 27.0 °F 14.7 °F 24.1 °F 89% 29.83 in 0.5 mi WNW 16.1 mph 24.2 mph 0.02 in Fog , Snow Snow
11:27 PM 26.1 °F 13.6 °F 24.1 °F 92% 29.83 in 0.2 mi NW 16.1 mph 25.3 mph 0.01 in Fog , Snow Heavy Snow
11:40 PM 26.1 °F 12.7 °F 23.0 °F 88% 29.84 in 0.5 mi WNW 18.4 mph 33.4 mph 0.01 in Fog , Snow Light Snow
11:54 PM 26.1 °F 12.3 °F 21.9 °F 84% 29.84 in 0.8 mi WNW 19.6 mph 35.7 mph 0.01 in Snow Light Snow